| time (UTC) | temp C | wind direction | speed KPH | gust KPH | rain 1hr cm | rain 24hr cm | rain mn cm | humidity % | barometer mb |
| 20260505053609 | 15 | 270 | 0.0 | 0.0 | 0.00 | 0.00 | 0.00 | 60 | 1020.4 |
| 20260505053105 | 15 | 270 | 0.0 | 0.0 | 0.00 | 0.00 | 0.00 | 60 | 1020.6 |
| 20260505052603 | 15 | 270 | 0.0 | 0.0 | 0.00 | 0.00 | 0.00 | 60 | 1020.5 |
| 20260505052100 | 15 | 268 | 0.0 | 0.0 | 0.00 | 0.00 | 0.00 | 60 | 1020.5 |
| 20260505051557 | 15 | 263 | 0.0 | 0.0 | 0.00 | 0.00 | 0.00 | 59 | 1020.5 |
| 20260505051055 | 15 | 270 | 0.0 | 0.0 | 0.00 | 0.00 | 0.00 | 59 | 1020.5 |
| 20260505050552 | 15 | 270 | 0.0 | 0.0 | 0.00 | 0.00 | 0.00 | 59 | 1020.4 |
| 20260505041520 | 16 | 285 | 0.0 | 0.0 | 0.00 | 0.00 | 0.00 | 56 | 1020.4 |
| 20260505041018 | 16 | 276 | 0.0 | 0.0 | 0.00 | 0.00 | 0.00 | 56 | 1020.5 |
| 20260505040515 | 16 | 271 | 0.0 | 0.0 | 0.00 | 0.00 | 0.00 | 55 | 1020.4 |
| 20260505040012 | 16 | 285 | 0.0 | 0.0 | 0.00 | 0.00 | 0.00 | 55 | 1020.4 |
| 20260505035508 | 16 | 287 | 0.0 | 0.0 | 0.00 | 0.00 | 0.00 | 55 | 1020.3 |
| 20260505035005 | 16 | 287 | 0.0 | 0.0 | 0.00 | 0.00 | 0.00 | 55 | 1020.5 |
| 20260505034501 | 16 | 286 | 0.0 | 0.0 | 0.00 | 0.00 | 0.00 | 55 | 1020.4 |
| 20260505033958 | 16 | 286 | 0.0 | 0.0 | 0.00 | 0.00 | 0.00 | 54 | 1020.6 |
| 20260505033455 | 17 | 298 | 0.0 | 0.0 | 0.00 | 0.00 | 0.00 | 54 | 1020.5 |
| 20260505032954 | 17 | 271 | 0.0 | 0.0 | 0.00 | 0.00 | 0.00 | 54 | 1020.7 |
| 20260505032451 | 17 | 269 | 0.0 | 0.0 | 0.00 | 0.00 | 0.00 | 53 | 1020.7 |
| 20260505031947 | 17 | 250 | 0.0 | 0.0 | 0.00 | 0.00 | 0.00 | 53 | 1020.6 |
| 20260505031444 | 17 | 271 | 0.0 | 0.0 | 0.00 | 0.00 | 0.00 | 53 | 1020.6 |
| 20260505030941 | 17 | 271 | 0.0 | 0.0 | 0.00 | 0.00 | 0.00 | 52 | 1020.7 |
| 20260505030437 | 17 | 271 | 0.0 | 0.0 | 0.00 | 0.00 | 0.00 | 52 | 1020.6 |
| 20260505025932 | 17 | 271 | 0.0 | 0.0 | 0.00 | 0.00 | 0.00 | 52 | 1020.6 |
| 20260505025430 | 17 | 270 | 0.0 | 0.0 | 0.00 | 0.00 | 0.00 | 52 | 1020.6 |
| 20260505024928 | 17 | 280 | 0.0 | 0.0 | 0.00 | 0.00 | 0.00 | 51 | 1020.5 |
| 20260505024425 | 18 | 271 | 0.0 | 0.0 | 0.00 | 0.00 | 0.00 | 51 | 1020.6 |
| 20260505023922 | 18 | 270 | 0.0 | 0.0 | 0.00 | 0.00 | 0.00 | 51 | 1020.5 |
| 20260505023419 | 18 | 271 | 0.0 | 0.0 | 0.00 | 0.00 | 0.00 | 50 | 1020.4 |
| 20260505022917 | 18 | 271 | 0.0 | 0.0 | 0.00 | 0.00 | 0.00 | 48 | 1020.7 |
| 20260505022414 | 19 | 251 | 0.0 | 0.0 | 0.00 | 0.00 | 0.00 | 46 | 1020.5 |
| 20260505021911 | 19 | 270 | 0.0 | 0.0 | 0.00 | 0.00 | 0.00 | 46 | 1020.3 |
| 20260505021407 | 20 | 271 | 0.0 | 0.0 | 0.00 | 0.00 | 0.00 | 45 | 1020.4 |
| 20260505020903 | 20 | 255 | 0.0 | 0.0 | 0.00 | 0.00 | 0.00 | 45 | 1020.4 |
| 20260505020359 | 20 | 261 | 0.0 | 0.0 | 0.00 | 0.00 | 0.00 | 45 | 1020.2 |
| 20260505015856 | 20 | 256 | 0.0 | 0.0 | 0.00 | 0.00 | 0.00 | 44 | 1020.2 |
| 20260505015353 | 20 | 259 | 0.0 | 0.0 | 0.00 | 0.00 | 0.00 | 45 | 1020.5 |
| 20260505014850 | 20 | 269 | 0.0 | 0.0 | 0.00 | 0.00 | 0.00 | 46 | 1020.2 |
| 20260505014347 | 20 | 271 | 0.0 | 0.0 | 0.00 | 0.00 | 0.00 | 46 | 1020.3 |
| 20260505013844 | 20 | 271 | 0.0 | 0.0 | 0.00 | 0.00 | 0.00 | 44 | 1020.2 |
| 20260505013341 | 20 | 271 | 0.0 | 0.0 | 0.00 | 0.00 | 0.00 | 45 | 1019.9 |
| 20260505012839 | 20 | 271 | 0.0 | 0.0 | 0.00 | 0.00 | 0.00 | 44 | 1020.1 |
| 20260505012337 | 20 | 271 | 0.0 | 0.0 | 0.00 | 0.00 | 0.00 | 43 | 1020.1 |
| 20260505011833 | 21 | 271 | 0.0 | 0.0 | 0.00 | 0.00 | 0.00 | 43 | 1020.0 |
| 20260505011330 | 21 | 271 | 0.0 | 0.0 | 0.00 | 0.00 | 0.00 | 42 | 1019.9 |
| 20260505010826 | 21 | 271 | 0.0 | 0.0 | 0.00 | 0.00 | 0.00 | 42 | 1019.8 |
| 20260505010322 | 21 | 271 | 0.0 | 0.0 | 0.00 | 0.00 | 0.00 | 42 | 1019.9 |
| 20260505005818 | 21 | 270 | 0.0 | 0.0 | 0.00 | 0.00 | 0.00 | 41 | 1019.9 |
| 20260505005315 | 21 | 269 | 0.0 | 0.0 | 0.00 | 0.00 | 0.00 | 41 | 1019.7 |
| 20260505004813 | 21 | 271 | 0.0 | 0.0 | 0.00 | 0.00 | 0.00 | 41 | 1019.7 |
| 20260505004308 | 21 | 201 | 0.0 | 0.0 | 0.00 | 0.00 | 0.00 | 40 | 1019.6 |
| 20260505003806 | 22 | 268 | 0.0 | 0.0 | 0.00 | 0.00 | 0.00 | 39 | 1019.8 |
| 20260505003303 | 22 | 270 | 0.0 | 0.0 | 0.00 | 0.00 | 0.00 | 39 | 1019.8 |
| 20260505002759 | 22 | 264 | 0.0 | 0.0 | 0.00 | 0.00 | 0.00 | 38 | 1019.6 |
| 20260505002257 | 22 | 256 | 0.0 | 0.0 | 0.00 | 0.00 | 0.00 | 38 | 1019.5 |
| 20260505001755 | 22 | 262 | 0.0 | 0.0 | 0.00 | 0.00 | 0.00 | 37 | 1019.5 |
| 20260505001252 | 22 | 248 | 0.0 | 0.0 | 0.00 | 0.00 | 0.00 | 37 | 1019.5 |
| 20260505000749 | 23 | 270 | 0.0 | 0.0 | 0.00 | 0.00 | 0.00 | 36 | 1019.5 |
| 20260505000247 | 23 | 263 | 0.0 | 0.0 | 0.00 | 0.00 | 0.00 | 36 | 1019.5 |
| 20260504235743 | 23 | 266 | 0.0 | 0.0 | 0.00 | 0.00 | 0.00 | 36 | 1019.5 |
| 20260504235239 | 23 | 260 | 0.0 | 0.0 | 0.00 | 0.00 | 0.00 | 36 | 1019.3 |
| 20260504234736 | 23 | 263 | 0.0 | 0.0 | 0.00 | 0.00 | 0.00 | 35 | 1019.4 |
| 20260504234234 | 23 | 265 | 0.0 | 0.0 | 0.00 | 0.00 | 0.00 | 35 | 1019.3 |
| 20260504233730 | 23 | 208 | 3.2 | 3.2 | 0.00 | 0.00 | 0.00 | 34 | 1019.3 |
| 20260504233226 | 23 | 261 | 0.0 | 0.0 | 0.00 | 0.00 | 0.00 | 34 | 1019.6 |
| 20260504232723 | 23 | 227 | 0.0 | 0.0 | 0.00 | 0.00 | 0.00 | 33 | 1019.6 |
| 20260504232220 | 24 | 268 | 1.6 | 3.2 | 0.00 | 0.00 | 0.00 | 33 | 1019.4 |
| 20260504231716 | 24 | 255 | 0.0 | 0.0 | 0.00 | 0.00 | 0.00 | 32 | 1019.5 |
| 20260504231213 | 24 | 204 | 0.0 | 0.0 | 0.00 | 0.00 | 0.00 | 31 | 1019.4 |
| 20260504230709 | 24 | 259 | 0.0 | 0.0 | 0.00 | 0.00 | 0.00 | 31 | 1019.5 |
| 20260504230208 | 24 | 220 | 0.0 | 0.0 | 0.00 | 0.00 | 0.00 | 30 | 1019.5 |
| 20260504225706 | 24 | 240 | 1.6 | 3.2 | 0.00 | 0.00 | 0.00 | 31 | 1019.5 |
| 20260504225202 | 24 | 237 | 4.8 | 4.8 | 0.00 | 0.00 | 0.00 | 30 | 1019.4 |
| 20260504224659 | 24 | 272 | 0.0 | 3.2 | 0.00 | 0.00 | 0.00 | 31 | 1019.5 |
| 20260504224156 | 25 | 249 | 1.6 | 3.2 | 0.00 | 0.00 | 0.00 | 31 | 1019.6 |
| 20260504223653 | 25 | 208 | 1.6 | 3.2 | 0.00 | 0.00 | 0.00 | 29 | 1019.5 |
| 20260504223148 | 25 | 187 | 1.6 | 3.2 | 0.00 | 0.00 | 0.00 | 29 | 1019.6 |
| 20260504222646 | 25 | 264 | 0.0 | 3.2 | 0.00 | 0.00 | 0.00 | 30 | 1019.7 |
| 20260504222142 | 25 | 252 | 3.2 | 4.8 | 0.00 | 0.00 | 0.00 | 30 | 1019.8 |
| 20260504221640 | 25 | 127 | 6.4 | 11.3 | 0.00 | 0.00 | 0.00 | 31 | 1019.6 |
| 20260504221137 | 25 | 233 | 4.8 | 4.8 | 0.00 | 0.00 | 0.00 | 31 | 1019.6 |
| 20260504220633 | 25 | 269 | 1.6 | 3.2 | 0.00 | 0.00 | 0.00 | 31 | 1019.6 |
| 20260504220131 | 25 | 257 | 3.2 | 3.2 | 0.00 | 0.00 | 0.00 | 31 | 1019.6 |
| 20260504215627 | 25 | 264 | 0.0 | 3.2 | 0.00 | 0.00 | 0.00 | 31 | 1019.7 |
| 20260504215125 | 25 | 229 | 3.2 | 3.2 | 0.00 | 0.00 | 0.00 | 29 | 1019.7 |
| 20260504214620 | 25 | 258 | 3.2 | 4.8 | 0.00 | 0.00 | 0.00 | 33 | 1019.5 |
| 20260504214117 | 25 | 261 | 1.6 | 3.2 | 0.00 | 0.00 | 0.00 | 30 | 1019.6 |
| 20260504213613 | 25 | 261 | 0.0 | 0.0 | 0.00 | 0.00 | 0.00 | 31 | 1019.4 |
| 20260504213110 | 25 | 260 | 3.2 | 4.8 | 0.00 | 0.00 | 0.00 | 31 | 1019.4 |
| 20260504212606 | 24 | 265 | 1.6 | 3.2 | 0.00 | 0.00 | 0.00 | 32 | 1019.5 |
| 20260504212104 | 24 | 312 | 0.0 | 3.2 | 0.00 | 0.00 | 0.00 | 33 | 1019.4 |
| 20260504211601 | 25 | 275 | 0.0 | 0.0 | 0.00 | 0.00 | 0.00 | 32 | 1019.3 |
| 20260504211057 | 25 | 255 | 0.0 | 0.0 | 0.00 | 0.00 | 0.00 | 30 | 1019.4 |
| 20260504210555 | 25 | 241 | 4.8 | 4.8 | 0.00 | 0.00 | 0.00 | 30 | 1019.6 |
| 20260504210051 | 25 | 241 | 3.2 | 3.2 | 0.00 | 0.00 | 0.00 | 30 | 1019.6 |
| 20260504205549 | 24 | 208 | 3.2 | 3.2 | 0.00 | 0.00 | 0.00 | 31 | 1019.6 |
| 20260504205047 | 25 | 274 | 0.0 | 3.2 | 0.00 | 0.00 | 0.00 | 31 | 1019.6 |
| 20260504204544 | 25 | 227 | 3.2 | 4.8 | 0.00 | 0.00 | 0.00 | 31 | 1019.6 |
| 20260504204043 | 25 | 249 | 4.8 | 4.8 | 0.00 | 0.00 | 0.00 | 31 | 1019.7 |
| 20260504203541 | 25 | 196 | 3.2 | 4.8 | 0.00 | 0.00 | 0.00 | 28 | 1020.0 |
| 20260504203038 | 25 | 146 | 4.8 | 4.8 | 0.00 | 0.00 | 0.00 | 26 | 1019.7 |
| 20260504202533 | 25 | 252 | 3.2 | 4.8 | 0.00 | 0.00 | 0.00 | 27 | 1020.1 |
| 20260504202031 | 25 | 244 | 3.2 | 4.8 | 0.00 | 0.00 | 0.00 | 28 | 1020.1 |
| 20260504201528 | 25 | 132 | 3.2 | 4.8 | 0.00 | 0.00 | 0.00 | 29 | 1020.1 |
| 20260504201026 | 24 | 266 | 4.8 | 8.0 | 0.00 | 0.00 | 0.00 | 31 | 1019.9 |
| 20260504200521 | 24 | 245 | 4.8 | 8.0 | 0.00 | 0.00 | 0.00 | 31 | 1020.1 |
| 20260504200019 | 24 | 262 | 1.6 | 3.2 | 0.00 | 0.00 | 0.00 | 31 | 1020.1 |
| 20260504195514 | 25 | 275 | 0.0 | 0.0 | 0.00 | 0.00 | 0.00 | 29 | 1020.2 |
| 20260504195011 | 25 | 251 | 1.6 | 8.0 | 0.00 | 0.00 | 0.00 | 30 | 1020.3 |
| 20260504194508 | 24 | 242 | 3.2 | 4.8 | 0.00 | 0.00 | 0.00 | 29 | 1020.2 |
| 20260504194003 | 24 | 274 | 0.0 | 0.0 | 0.00 | 0.00 | 0.00 | 32 | 1020.4 |
| 20260504193500 | 24 | 217 | 3.2 | 4.8 | 0.00 | 0.00 | 0.00 | 34 | 1020.6 |
| 20260504192959 | 25 | 245 | 3.2 | 8.0 | 0.00 | 0.00 | 0.00 | 31 | 1020.7 |
| 20260504192456 | 25 | 249 | 0.0 | 0.0 | 0.00 | 0.00 | 0.00 | 30 | 1020.6 |
| 20260504191955 | 24 | 266 | 1.6 | 3.2 | 0.00 | 0.00 | 0.00 | 31 | 1020.8 |
| 20260504191452 | 24 | 239 | 6.4 | 8.0 | 0.00 | 0.00 | 0.00 | 31 | 1020.8 |
| 20260504190947 | 24 | 267 | 3.2 | 3.2 | 0.00 | 0.00 | 0.00 | 33 | 1021.0 |
| 20260504190443 | 24 | 220 | 4.8 | 4.8 | 0.00 | 0.00 | 0.00 | 31 | 1021.0 |
| 20260504185940 | 24 | 187 | 8.0 | 11.3 | 0.00 | 0.00 | 0.00 | 28 | 1021.0 |
| 20260504185438 | 24 | 128 | 6.4 | 8.0 | 0.00 | 0.00 | 0.00 | 30 | 1021.0 |
| 20260504184934 | 24 | 244 | 3.2 | 4.8 | 0.00 | 0.00 | 0.00 | 31 | 1021.1 |
| 20260504184429 | 24 | 165 | 0.0 | 0.0 | 0.00 | 0.00 | 0.00 | 32 | 1021.0 |
| 20260504183925 | 24 | 216 | 4.8 | 4.8 | 0.00 | 0.00 | 0.00 | 32 | 1021.3 |
| 20260504183423 | 24 | 267 | 0.0 | 0.0 | 0.00 | 0.00 | 0.00 | 32 | 1021.2 |
| 20260504182921 | 24 | 206 | 0.0 | 0.0 | 0.00 | 0.00 | 0.00 | 31 | 1021.3 |
| 20260504182417 | 23 | 280 | 0.0 | 0.0 | 0.00 | 0.00 | 0.00 | 32 | 1021.5 |
| 20260504181914 | 24 | 204 | 3.2 | 4.8 | 0.00 | 0.00 | 0.00 | 33 | 1021.5 |
| 20260504181412 | 23 | 212 | 0.0 | 0.0 | 0.00 | 0.00 | 0.00 | 37 | 1021.5 |
| 20260504180910 | 23 | 339 | 4.8 | 4.8 | 0.00 | 0.00 | 0.00 | 36 | 1021.7 |
| 20260504180409 | 23 | 299 | 1.6 | 3.2 | 0.00 | 0.00 | 0.00 | 34 | 1021.8 |
| 20260504175907 | 23 | 271 | 0.0 | 0.0 | 0.00 | 0.00 | 0.00 | 37 | 1021.8 |
| 20260504175403 | 23 | 254 | 0.0 | 0.0 | 0.00 | 0.00 | 0.00 | 32 | 1021.9 |
| 20260504174901 | 23 | 269 | 1.6 | 3.2 | 0.00 | 0.00 | 0.00 | 35 | 1021.9 |
| 20260504174358 | 23 | 130 | 4.8 | 4.8 | 0.00 | 0.00 | 0.00 | 33 | 1021.8 |
| 20260504173855 | 23 | 241 | 0.0 | 0.0 | 0.00 | 0.00 | 0.00 | 35 | 1022.0 |
| 20260504173352 | 23 | 247 | 0.0 | 0.0 | 0.00 | 0.00 | 0.00 | 35 | 1022.2 |
| 20260504172849 | 23 | 263 | 0.0 | 0.0 | 0.00 | 0.00 | 0.00 | 36 | 1022.0 |
| 20260504172346 | 23 | 233 | 0.0 | 0.0 | 0.00 | 0.00 | 0.00 | 34 | 1022.2 |
| 20260504171841 | 23 | 264 | 0.0 | 0.0 | 0.00 | 0.00 | 0.00 | 35 | 1022.0 |
| 20260504171339 | 23 | 311 | 0.0 | 0.0 | 0.00 | 0.00 | 0.00 | 36 | 1022.3 |
| 20260504170836 | 23 | 303 | 0.0 | 0.0 | 0.00 | 0.00 | 0.00 | 36 | 1022.4 |
| 20260504170332 | 23 | 303 | 0.0 | 0.0 | 0.00 | 0.00 | 0.00 | 35 | 1022.3 |
| 20260504160251 | 21 | 305 | 0.0 | 0.0 | 0.00 | 0.00 | 0.00 | 41 | 1023.0 |
| 20260504150716 | 20 | 257 | 3.2 | 4.8 | 0.00 | 0.00 | 0.00 | 46 | 1023.7 |
| 20260504150213 | 19 | 264 | 0.0 | 3.2 | 0.00 | 0.00 | 0.00 | 45 | 1023.5 |
| 20260504141142 | 17 | 271 | 3.2 | 3.2 | 0.00 | 0.00 | 0.00 | 56 | 1024.0 |
| 20260504140639 | 17 | 265 | 0.0 | 0.0 | 0.00 | 0.00 | 0.00 | 52 | 1023.7 |
| 20260504140134 | 17 | 263 | 0.0 | 0.0 | 0.00 | 0.00 | 0.00 | 54 | 1023.9 |
| 20260504130603 | 12 | 268 | 0.0 | 0.0 | 0.00 | 0.00 | 0.00 | 73 | 1023.5 |
| 20260504110451 | 7 | 267 | 0.0 | 0.0 | 0.00 | 0.00 | 0.00 | 85 | 1022.9 |
| 20260504100413 | 8 | 267 | 0.0 | 0.0 | 0.00 | 0.00 | 0.00 | 84 | 1023.0 |
| 20260504081806 | 8 | 267 | 0.0 | 0.0 | 0.00 | 0.00 | 0.00 | 80 | 1023.0 |
| 20260504081303 | 8 | 267 | 0.0 | 0.0 | 0.00 | 0.00 | 0.00 | 80 | 1022.9 |
| 20260504080759 | 9 | 267 | 0.0 | 0.0 | 0.00 | 0.00 | 0.00 | 80 | 1023.0 |
| 20260504080255 | 9 | 267 | 0.0 | 0.0 | 0.00 | 0.00 | 0.00 | 80 | 1023.1 |
| 20260504070223 | 10 | 267 | 0.0 | 0.0 | 0.00 | 0.00 | 0.00 | 79 | 1023.6 |
| 20260504060143 | 10 | 267 | 0.0 | 0.0 | 0.00 | 0.00 | 0.00 | 78 | 1023.2 |